When you browse on this site, cookies collect data to enhance your experience and personalize the content and advertising you see.
Visit our Privacy Policy to learn more. By continuing to use the site, you agree to this use of cookies and data.
  • en France
  • Liste des pays
  • À 7 jours
  • Température de l'eau
  • Carte satellitaire
  • Carte météo
  • Widgets météo
  • user-avatar
    Se connecter

    Météo par heure à Sliven

    Ce jour, 27 Mai, Lundi

    Heure Température Précipitation Vent Pression Humidité
    00:00 +16°C° 0 mm 1 m/s 733 mmHg 84%
    01:00 +16°C° 0 mm 1 m/s 733 mmHg 86%
    02:00 +15°C° 0 mm 1 m/s 732 mmHg 87%
    03:00 +15°C° 0 mm 1 m/s 732 mmHg 88%
    04:00 +15°C° 0 mm 1 m/s 732 mmHg 89%
    05:00 +15°C° 0 mm 1 m/s 732 mmHg 90%
    06:00 +18°C° 0 mm 1 m/s 733 mmHg 83%
    07:00 +20°C° 0 mm 1 m/s 733 mmHg 77%
    08:00 +22°C° 0 mm 1 m/s 733 mmHg 70%
    09:00 +23°C° 0 mm 2 m/s 733 mmHg 66%
    10:00 +24°C° 0 mm 2 m/s 733 mmHg 62%
    11:00 +26°C° 0 mm 3 m/s 733 mmHg 58%
    12:00 +26°C° 0 mm 3 m/s 733 mmHg 57%
    13:00 +27°C° 0 mm 4 m/s 733 mmHg 55%
    14:00 +27°C° 0 mm 4 m/s 732 mmHg 54%
    15:00 +27°C° 0 mm 4 m/s 732 mmHg 55%
    16:00 +27°C° 0 mm 4 m/s 732 mmHg 56%
    17:00 +26°C° 0 mm 4 m/s 732 mmHg 57%
    18:00 +23°C° 0 mm 4 m/s 732 mmHg 63%
    19:00 +20°C° 0 mm 4 m/s 731 mmHg 70%
    20:00 +18°C° 0 mm 3 m/s 731 mmHg 76%
    21:00 +17°C° 0 mm 3 m/s 731 mmHg 77%
    22:00 +17°C° 0 mm 3 m/s 731 mmHg 77%
    23:00 +16°C° 0 mm 2 m/s 731 mmHg 78%

    Demain, 28 Mai, Mardi

    Heure Température Précipitation Vent Pression Humidité
    00:00 +16°C° 0 mm 2 m/s 731 mmHg 79%
    01:00 +15°C° 0 mm 2 m/s 731 mmHg 80%
    02:00 +15°C° 0 mm 2 m/s 730 mmHg 81%
    03:00 +14°C° 0 mm 1 m/s 730 mmHg 80%
    04:00 +14°C° 0 mm 1 m/s 730 mmHg 79%
    05:00 +14°C° 0 mm 1 m/s 729 mmHg 78%
    06:00 +16°C° 0 mm 2 m/s 730 mmHg 72%
    07:00 +18°C° 0 mm 2 m/s 730 mmHg 67%
    08:00 +20°C° 0 mm 2 m/s 730 mmHg 62%
    09:00 +22°C° 0 mm 3 m/s 730 mmHg 58%
    10:00 +25°C° 0 mm 3 m/s 730 mmHg 54%
    11:00 +27°C° 0 mm 4 m/s 730 mmHg 51%
    12:00 +28°C° 0 mm 5 m/s 729 mmHg 49%
    13:00 +29°C° 0 mm 5 m/s 729 mmHg 47%
    14:00 +29°C° 0 mm 6 m/s 729 mmHg 45%
    15:00 +29°C° 0 mm 6 m/s 728 mmHg 45%
    16:00 +28°C° 0 mm 6 m/s 728 mmHg 46%
    17:00 +28°C° 0 mm 6 m/s 727 mmHg 46%
    18:00 +25°C° 0 mm 5 m/s 727 mmHg 51%
    19:00 +22°C° 0 mm 4 m/s 727 mmHg 56%
    20:00 +20°C° 0 mm 3 m/s 727 mmHg 60%
    21:00 +18°C° 0 mm 3 m/s 727 mmHg 65%
    22:00 +17°C° 0 mm 2 m/s 727 mmHg 71%
    23:00 +16°C° 0 mm 1 m/s 727 mmHg 76%

    Après-demain, 29 Mai, Mercredi

    Heure Température Précipitation Vent Pression Humidité
    00:00 +15°C° 0 mm 1 m/s 727 mmHg 79%
    01:00 +15°C° 0 mm 1 m/s 727 mmHg 82%
    02:00 +14°C° 0 mm 1 m/s 727 mmHg 85%
    03:00 +14°C° 0 mm 1 m/s 727 mmHg 85%
    04:00 +14°C° 0 mm 1 m/s 728 mmHg 85%
    05:00 +13°C° 0 mm 0 m/s 728 mmHg 85%
    06:00 +18°C° 0 mm 1 m/s 728 mmHg 78%
    07:00 +20°C° 0 mm 1 m/s 728 mmHg 72%
    08:00 +23°C° 0 mm 1 m/s 729 mmHg 66%
    09:00 +24°C° 0 mm 1 m/s 729 mmHg 61%
    10:00 +25°C° 0 mm 2 m/s 729 mmHg 57%
    11:00 +27°C° 0 mm 2 m/s 729 mmHg 52%
    12:00 +27°C° 0 mm 2 m/s 729 mmHg 51%
    13:00 +28°C° 0 mm 3 m/s 729 mmHg 49%
    14:00 +28°C° 0 mm 3 m/s 729 mmHg 47%
    15:00 +28°C° 0 mm 3 m/s 729 mmHg 49%
    16:00 +28°C° 0 mm 3 m/s 729 mmHg 50%
    17:00 +28°C° 0 mm 3 m/s 729 mmHg 52%
    18:00 +26°C° 0.1 mm 3 m/s 729 mmHg 61%
    19:00 +23°C° 0.1 mm 2 m/s 729 mmHg 70%
    20:00 +20°C° 0.1 mm 2 m/s 729 mmHg 79%
    21:00 +20°C° 0 mm 1 m/s 729 mmHg 82%
    22:00 +19°C° 0 mm 1 m/s 729 mmHg 85%
    23:00 +16°C° 0 mm 0 m/s 729 mmHg 88%

    30 Mai, Jeudi

    Heure Température Précipitation Vent Pression Humidité
    00:00 +16°C° 0 mm 0 m/s 729 mmHg 88%
    01:00 +16°C° 0 mm 0 m/s 729 mmHg 89%
    02:00 +16°C° 0 mm 0 m/s 729 mmHg 89%
    03:00 +16°C° 0 mm 0 m/s 729 mmHg 90%
    04:00 +15°C° 0 mm 0 m/s 729 mmHg 90%
    05:00 +15°C° 0 mm 0 m/s 729 mmHg 91%
    06:00 +19°C° 0.1 mm 1 m/s 730 mmHg 86%
    07:00 +21°C° 0.1 mm 1 m/s 730 mmHg 80%
    08:00 +23°C° 0.1 mm 1 m/s 730 mmHg 75%
    09:00 +24°C° 0.6 mm 1 m/s 730 mmHg 71%
    10:00 +26°C° 0.6 mm 1 m/s 730 mmHg 68%
    11:00 +25°C° 0.6 mm 0 m/s 730 mmHg 64%
    12:00 +25°C° 0.9 mm 0 m/s 730 mmHg 63%
    13:00 +27°C° 0.9 mm 1 m/s 730 mmHg 62%
    14:00 +27°C° 0.9 mm 1 m/s 730 mmHg 61%
    15:00 +27°C° 0.9 mm 1 m/s 730 mmHg 62%
    16:00 +27°C° 0.9 mm 1 m/s 729 mmHg 63%
    17:00 +24°C° 0.9 mm 0 m/s 729 mmHg 63%
    18:00 +25°C° 0.6 mm 1 m/s 729 mmHg 69%
    19:00 +23°C° 0.6 mm 1 m/s 729 mmHg 74%
    20:00 +21°C° 0.6 mm 1 m/s 729 mmHg 80%
    21:00 +21°C° 0.6 mm 1 m/s 729 mmHg 83%
    22:00 +20°C° 0.6 mm 1 m/s 729 mmHg 86%
    23:00 +19°C° 0.6 mm 1 m/s 729 mmHg 89%

    31 Mai, Vendredi

    Heure Température Précipitation Vent Pression Humidité
    00:00 +18°C° 0.1 mm 1 m/s 729 mmHg 90%
    01:00 +18°C° 0.1 mm 1 m/s 729 mmHg 92%
    02:00 +16°C° 0.1 mm 1 m/s 729 mmHg 93%
    03:00 +16°C° 0 mm 2 m/s 729 mmHg 94%
    04:00 +16°C° 0 mm 2 m/s 729 mmHg 94%
    05:00 +16°C° 0 mm 2 m/s 729 mmHg 95%
    06:00 +17°C° 0 mm 2 m/s 729 mmHg 90%
    07:00 +18°C° 0 mm 2 m/s 729 mmHg 86%
    08:00 +19°C° 0 mm 2 m/s 729 mmHg 81%
    09:00 +20°C° 0 mm 2 m/s 729 mmHg 75%
    10:00 +23°C° 0 mm 2 m/s 729 mmHg 70%
    11:00 +24°C° 0 mm 2 m/s 729 mmHg 64%
    12:00 +24°C° 0.7 mm 2 m/s 729 mmHg 66%
    13:00 +24°C° 0.7 mm 2 m/s 729 mmHg 68%
    14:00 +24°C° 0.7 mm 1 m/s 729 mmHg 69%
    15:00 +24°C° 1.1 mm 2 m/s 729 mmHg 70%
    16:00 +24°C° 1.1 mm 2 m/s 728 mmHg 71%
    17:00 +24°C° 1.1 mm 2 m/s 728 mmHg 72%
    18:00 +21°C° 0.4 mm 2 m/s 728 mmHg 78%
    19:00 +19°C° 0.4 mm 2 m/s 728 mmHg 84%
    20:00 +18°C° 0.4 mm 3 m/s 728 mmHg 89%
    21:00 +17°C° 0 mm 3 m/s 728 mmHg 90%
    22:00 +17°C° 0 mm 3 m/s 728 mmHg 91%
    23:00 +16°C° 0 mm 3 m/s 728 mmHg 92%

    1 Juin, Samedi

    Heure Température Précipitation Vent Pression Humidité
    00:00 +16°C° 0 mm 3 m/s 728 mmHg 92%
    01:00 +15°C° 0 mm 2 m/s 728 mmHg 93%
    02:00 +14°C° 0 mm 2 m/s 728 mmHg 93%
    03:00 +14°C° 0 mm 2 m/s 728 mmHg 93%
    04:00 +14°C° 0 mm 2 m/s 728 mmHg 92%
    05:00 +14°C° 0 mm 2 m/s 728 mmHg 92%
    06:00 +15°C° 0 mm 2 m/s 728 mmHg 87%
    07:00 +17°C° 0 mm 2 m/s 728 mmHg 81%
    08:00 +18°C° 0 mm 2 m/s 728 mmHg 76%
    09:00 +20°C° 0.1 mm 2 m/s 728 mmHg 72%
    10:00 +21°C° 0.1 mm 2 m/s 728 mmHg 68%
    11:00 +23°C° 0.1 mm 2 m/s 728 mmHg 64%
    12:00 +23°C° 0.4 mm 2 m/s 728 mmHg 63%
    13:00 +24°C° 0.4 mm 2 m/s 728 mmHg 62%
    14:00 +24°C° 0.4 mm 1 m/s 727 mmHg 61%
    15:00 +24°C° 2 mm 1 m/s 727 mmHg 64%
    16:00 +23°C° 2 mm 1 m/s 727 mmHg 68%
    17:00 +23°C° 2 mm 1 m/s 727 mmHg 71%
    18:00 +21°C° 0.5 mm 1 m/s 727 mmHg 76%
    19:00 +20°C° 0.5 mm 1 m/s 727 mmHg 80%
    20:00 +19°C° 0.5 mm 1 m/s 727 mmHg 84%
    21:00 +17°C° 1 mm 2 m/s 727 mmHg 87%
    22:00 +16°C° 1 mm 2 m/s 727 mmHg 89%
    23:00 +16°C° 1 mm 2 m/s 727 mmHg 91%
    Voir plus